ワイズ彗星

317P/WISE (2015)

English version
Home page
Updated on November 13, 2016

---------------------------------------------------------------------

・ プロフィール

符号 317P/2015 B3
検出日 2015年1月26日
検出光度 22.0等
検出者 Pan-STARRS 1 telescope (Haleakala)

・ 写真集

・ 軌道要素

Epoch 2015 Aug. 6.0 TT = JDT 2457240.5
T 2015 Aug. 16.78938 TT                                 MPCW
q   1.2762117            (2000.0)            P               Q
n   0.19286565     Peri.  334.78859     -0.32700178     +0.92232019
a   2.9668764      Node   275.56752     -0.82821192     -0.38462715
e   0.5698467      Incl.   11.93941     -0.45512070     +0.03724825
P   5.11
From 74 observations 2010 May 27-2016 Oct. 2, mean residual 0".4.

・ 光度変化

        m1 = 17.0 + 5 logΔ + 10.0 log r

---------------------------------------------------------------------

軌道要素はM.P.E.C. 2016-V116に掲載されたものです。
光度グラフはComet for Windowsで作成したものです。

---------------------------------------------------------------------

Copyright(C) Seiichi Yoshida (comet@aerith.net). All rights reserved.